Back to catalog

COSMOS 926 DEB

AlivePO
NORAD 13475·DEBRIS·🇷🇺 Russia

Launched Jul 8, 1977 from Plesetsk Cosmodrome

Loading…

Next Passes (next 24 hours)

TLE

StaleSource: Space-Track

Epoch: Jan 26, 1994, 13:23 UTC

1 13475U 77062C   94026.55792019 -.00007384 +00000-0 -75706-2 0  9992
2 13475 082.9538 074.8498 0043319 029.3774 327.9200 13.76116993680406

Track COSMOS 926 DEB in real time with AllMySat

Download on the App Store